STARLINK-1993 (47588 NORAD) Tracking and Keplerian Element Data

This shows tracking and keplerian element data for the satellite.

Feedback or suggestion? Click here.




ElementValue
Catalog47588
NameSTARLINK-1993
Epoch Orbit183
Epoch Day56.91667824
Epoch Year2021
RAAN17.6313
Inclination53.0533
Eccentricity0.0001293
Argument of Perigee80.6095
Mean Anonmoly290.0904
Mean Motion15.6276361
Decay Rate-0.00050987
L11 47588U 21009AS 21056.91667824 -.00050987 00000-0 -55428-3 0 9999
L22 47588 53.0533 17.6313 0001293 80.6095 290.0904 15.62763610 1830

Live tracking and technical data element details for STARLINK-1993 (NORAD 47588). STARLINK-1993 can be tracked NOW for your location showing map with azimuth and elevation plus other details from your city location.

Track the satellite on the map from your city or location and see movement details for azimuth, elevation, latitude, longitude, range, height, and movement on the map or in text.







IsCatalogInMostPopularTable: catalog: 47588, numindb: 1
Update: records affected: 1



GetName: 47588 STARLINK-1993

Hit Count: updated at: Fri, 26 Feb 2021 09:08:52 GMT